Simultaneous Nadir Overpasses (SNOs) Predictions

Prediction of SNOs between NOAA-19 and TERRA Satellite Orbit:

Table of predicted SNOs for the next 14.0 days since TLE Epoch: 10/19/2013
Index Date (NOAA-19) Time (NOAA-19) Lat,Lon (NOAA-19) SZA (NOAA-19 ) Date (TERRA) Time (TERRA) Lat,Lon (TERRA) SZA (TERRA ) Distance(km) Time Diff (sec)
1 10/19/2013 15:23:17 69.85, -50.46 79.98 10/19/2013 15:23:52 69.86, -50.47 79.99 1.53 35
2 10/19/2013 16:14:15 -69.74, 116.95 100.12 10/19/2013 16:13:22 -69.75, 117.01 100.12 2.32 53
3 10/21/2013 20:07:28 69.85,-121.50 80.77 10/21/2013 20:08:09 69.85,-121.55 80.77 2.20 41
4 10/21/2013 20:58:27 -69.76, 45.89 99.31 10/21/2013 20:57:39 -69.74, 45.93 99.33 2.11 48
5 10/24/2013 00:51:40 69.86, 167.46 81.55 10/24/2013 00:52:28 69.87, 167.39 81.56 3.20 48
6 10/24/2013 01:42:40 -69.78, -25.19 98.52 10/24/2013 01:41:58 -69.77, -25.12 98.54 3.00 42
7 10/26/2013 05:35:53 69.92, 96.33 82.36 10/26/2013 05:36:48 69.91, 96.36 82.36 1.37 55
8 10/26/2013 06:26:52 -69.76, -96.19 97.78 10/26/2013 06:26:19 -69.76, -96.22 97.79 1.47 33
9 10/28/2013 10:20:05 69.93, 25.27 83.12 10/28/2013 10:21:10 69.92, 25.28 83.11 1.44 65
10 10/28/2013 11:11:05 -69.80,-167.27 97.00 10/28/2013 11:10:41 -69.77,-167.30 97.03 2.70 24
11 10/30/2013 15:04:20 70.11, -46.03 84.02 10/30/2013 15:05:31 70.07, -45.62 83.99 16.50 71
12 10/30/2013 15:55:18 -69.84, 121.63 96.24 10/30/2013 15:55:04 -69.81, 121.66 96.27 2.87 14
13 11/01/2013 19:48:40 70.55,-117.77 85.15 11/01/2013 19:49:49 70.45,-116.16 85.10 60.89 69
14 11/01/2013 20:39:30 -69.83, 50.61 95.54 11/01/2013 20:39:29 -69.82, 50.56 95.55 1.93 1




NCC Satellite Simultaneous Nadir Overpasses (SNOs) Prediction Service
